TimeCST,TemperatureF,Dew PointF,Humidity,Sea Level PressureIn,VisibilityMPH,Wind Direction,Wind SpeedMPH,Gust SpeedMPH,PrecipitationIn,Events,Conditions,WindDirDegrees,DateUTC
12:56 AM,66.9,64.9,93,29.91,10.0,South,6.9,-,N/A,,Scattered Clouds,180,2012-12-10 06:56:00
1:19 AM,68.0,64.4,88,29.94,10.0,South,6.9,-,N/A,,Mostly Cloudy,170,2012-12-10 07:19:00
1:56 AM,68.0,64.9,90,29.89,10.0,South,5.8,-,N/A,,Mostly Cloudy,170,2012-12-10 07:56:00
2:12 AM,66.2,64.4,94,29.93,10.0,South,5.8,-,N/A,,Scattered Clouds,180,2012-12-10 08:12:00
2:56 AM,66.9,64.9,93,29.88,10.0,South,4.6,-,N/A,,Mostly Cloudy,190,2012-12-10 08:56:00
3:33 AM,66.2,64.4,94,29.91,10.0,South,5.8,-,N/A,,Scattered Clouds,180,2012-12-10 09:33:00
3:56 AM,66.9,64.9,93,29.86,10.0,South,6.9,-,N/A,,Mostly Cloudy,180,2012-12-10 09:56:00
4:19 AM,68.0,64.4,88,29.89,10.0,South,8.1,-,N/A,,Scattered Clouds,190,2012-12-10 10:19:00
4:56 AM,68.0,64.9,90,29.84,10.0,South,6.9,-,N/A,,Scattered Clouds,190,2012-12-10 10:56:00
5:56 AM,68.0,64.9,90,29.82,10.0,South,6.9,-,N/A,,Mostly Cloudy,190,2012-12-10 11:56:00
6:56 AM,68.0,64.9,90,29.82,10.0,South,6.9,-,N/A,,Mostly Cloudy,190,2012-12-10 12:56:00
7:09 AM,69.8,66.2,88,29.87,10.0,SSW,4.6,-,N/A,,Overcast,200,2012-12-10 13:09:00
7:35 AM,69.8,66.2,88,29.86,10.0,South,8.1,-,N/A,,Scattered Clouds,190,2012-12-10 13:35:00
7:56 AM,71.1,66.0,84,29.83,10.0,South,6.9,-,N/A,,Clear,190,2012-12-10 13:56:00
8:25 AM,71.6,66.2,83,29.87,10.0,SSW,10.4,16.1,N/A,,Mostly Cloudy,200,2012-12-10 14:25:00
8:56 AM,72.0,66.0,81,29.85,10.0,SSW,12.7,19.6,N/A,,Overcast,200,2012-12-10 14:56:00
9:56 AM,72.0,68.0,87,29.84,10.0,SSW,9.2,17.3,N/A,Rain,Light Rain,200,2012-12-10 15:56:00
10:56 AM,73.9,66.0,76,29.81,10.0,SSW,9.2,20.7,N/A,,Overcast,200,2012-12-10 16:56:00
11:56 AM,73.9,66.9,79,29.78,10.0,South,9.2,17.3,N/A,,Overcast,190,2012-12-10 17:56:00
12:37 PM,71.6,68.0,88,29.81,10.0,Variable,6.9,17.3,0.03,Rain,Light Rain,0,2012-12-10 18:37:00
12:56 PM,72.0,68.0,87,29.74,5.0,NW,9.2,-,0.07,Rain,Rain,320,2012-12-10 18:56:00
1:02 PM,71.6,68.0,88,29.80,2.0,WSW,8.1,-,0.12,Rain,Rain,240,2012-12-10 19:02:00
1:09 PM,69.8,66.2,88,29.80,1.5,Variable,6.9,-,0.15,Rain,Heavy Rain,0,2012-12-10 19:09:00
1:12 PM,71.6,68.0,88,29.79,3.0,Variable,6.9,-,0.15,Rain,Light Rain,0,2012-12-10 19:12:00
1:24 PM,73.4,69.8,88,29.79,10.0,Variable,5.8,-,0.15,,Scattered Clouds,0,2012-12-10 19:24:00
1:56 PM,73.9,66.9,79,29.75,10.0,WSW,9.2,19.6,0.15,,Clear,240,2012-12-10 19:56:00
2:56 PM,73.9,64.9,73,29.74,10.0,SW,5.8,-,N/A,,Mostly Cloudy,230,2012-12-10 20:56:00
3:20 PM,73.4,64.4,73,29.78,10.0,Variable,4.6,-,N/A,,Mostly Cloudy,0,2012-12-10 21:20:00
3:56 PM,73.0,64.0,73,29.74,10.0,SW,5.8,-,N/A,,Partly Cloudy,230,2012-12-10 21:56:00
4:56 PM,70.0,62.1,76,29.74,10.0,Calm,Calm,-,N/A,,Clear,0,2012-12-10 22:56:00
5:24 PM,69.8,60.8,73,29.80,10.0,West,4.6,-,N/A,,Mostly Cloudy,260,2012-12-10 23:24:00
5:51 PM,69.8,60.8,73,29.80,10.0,Variable,4.6,-,N/A,,Overcast,0,2012-12-10 23:51:00
5:56 PM,69.1,61.0,75,29.77,10.0,Variable,3.5,-,N/A,,Overcast,0,2012-12-10 23:56:00
6:56 PM,66.9,62.1,84,29.78,10.0,NW,6.9,-,N/A,,Overcast,310,2012-12-11 00:56:00
7:23 PM,66.2,62.6,88,29.84,10.0,NW,5.8,-,N/A,,Mostly Cloudy,310,2012-12-11 01:23:00
7:48 PM,66.2,62.6,88,29.84,10.0,WNW,3.5,-,N/A,,Scattered Clouds,300,2012-12-11 01:48:00
7:56 PM,66.0,62.1,87,29.81,10.0,Calm,Calm,-,N/A,,Scattered Clouds,0,2012-12-11 01:56:00
8:19 PM,64.4,62.6,94,29.85,10.0,Calm,Calm,-,N/A,,Mostly Cloudy,0,2012-12-11 02:19:00
8:32 PM,64.4,60.8,88,29.86,6.0,NW,17.3,23.0,0.00,Rain,Light Rain,320,2012-12-11 02:32:00
8:56 PM,60.1,57.9,93,29.83,10.0,NW,10.4,-,0.00,,Overcast,320,2012-12-11 02:56:00
9:21 PM,57.2,55.4,94,29.89,9.0,NW,11.5,19.6,N/A,,Overcast,320,2012-12-11 03:21:00
9:52 PM,57.2,55.4,94,29.89,10.0,NW,10.4,-,N/A,,Overcast,320,2012-12-11 03:52:00
9:56 PM,57.9,55.0,90,29.86,10.0,NNW,10.4,-,N/A,,Overcast,330,2012-12-11 03:56:00
10:56 PM,55.9,53.1,90,29.88,10.0,NNW,10.4,19.6,N/A,,Overcast,330,2012-12-11 04:56:00
11:56 PM,54.0,51.1,90,29.88,10.0,NNW,16.1,-,N/A,,Overcast,340,2012-12-11 05:56:00